User: anonymous
Location: Unspecified
(0.0000°N, 0.0000°E)
Time: 04:24:03
(UTC+00:00)
Language:

ELEKTRO-L - Orbit

View from above orbital plane
View from above orbital plane
View from above satellite
View from above satellite

Ground track
Ground track

The orbit data is extracted from the following two-line orbital elements,

1 37344U 11001A   14274.62624500 -.00000117  00000-0  00000+0 0  1044
2 37344 000.4417 080.4430 0001209 169.3552 062.1395 01.00278551 13583
Epoch (UTC): 01 October 2014 15:01:47
Eccentricity: 0.0001209
inclination: 0.4417°
perigee height: 35779 km
apogee height: 35789 km
right ascension of ascending node: 80.4430°
argument of perigee: 169.3552°
revolutions per day: 1.00278551
mean anomaly at epoch: 62.1395°
orbit number at epoch: 1358

The dashed part of the orbit path shows where the satellite is in the earth's shadow,  

DLR